GFSGBSN_850_temp_000.txt.gz
Temp
13 13 14 14 14 15 15 15 15 16 16 17 17 17 17 18 19 19 20 20 21 21 21 22 22 22 22 21 24 25 25 27 27 26 27 26 26 27 25 25 27 26 26 27 28 27 26
12 12 13 13 13 14 14 15 15 16 16 16 17 17 18 18 18 19 20 20 21 21 22 22 22 22 21 18 25 25 26 27 27 27 26 26 27 29 28 27 27 29 27 26 26 26 25
12 12 12 12 13 13 13 14 15 15 16 16 17 17 18 18 18 19 20 20 21 21 22 22 22 22 21 24 25 25 25 25 26 26 26 26 28 28 28 27 29 28 24 25 24 25 23
12 12 12 12 12 13 13 13 14 14 15 16 17 17 17 18 18 19 20 20 21 22 22 22 22 21 21 25 25 26 26 26 26 25 26 27 27 27 28 29 27 26 24 24 25 24 24
11 11 11 12 12 13 13 13 13 14 14 15 16 16 17 18 18 18 20 20 21 22 22 22 21 21 21 24 25 25 26 26 26 26 26 26 27 27 27 24 23 24 23 24 25 25 24
9 10 11 11 11 12 12 13 13 14 14 15 15 16 17 18 18 19 20 20 21 21 20 19 18 19 24 25 25 25 25 26 26 26 25 26 26 21 19 21 22 23 24 24 23 24 24
9 10 10 11 11 11 11 12 12 13 13 14 14 15 17 17 18 19 20 20 20 20 19 21 21 21 24 26 25 26 25 25 25 25 22 24 22 21 22 23 24 24 24 26 25 26 24
9 9 10 10 10 10 10 11 11 11 12 13 14 15 16 17 18 18 19 18 17 16 15 21 22 21 23 23 22 25 25 25 24 22 23 22 21 22 23 24 24 25 24 24 26 25 25
9 9 9 9 9 9 10 10 10 10 11 12 13 14 15 17 18 18 18 19 17 16 14 20 21 20 22 21 21 24 24 25 23 21 22 20 23 23 24 24 24 24 24 23 26 24 23
9 9 9 9 9 9 9 9 10 10 11 12 12 13 15 17 18 18 18 18 18 18 13 17 20 22 22 22 20 25 24 25 23 21 21 22 24 24 23 24 23 23 24 25 24 24 22
8 8 8 9 9 9 9 9 9 9 10 12 12 12 13 14 15 17 17 17 18 18 16 21 23 24 23 23 24 24 25 25 22 23 22 22 24 24 24 25 25 26 24 24 24 22 22
7 8 8 8 8 8 8 8 9 10 11 11 12 12 13 14 15 17 17 18 18 16 16 20 23 24 22 23 24 25 25 26 26 24 23 23 26 24 25 26 26 25 24 21 18 19 20
7 7 7 7 8 8 8 8 8 9 10 11 12 13 13 14 16 17 17 18 15 14 19 22 22 22 22 22 22 24 23 22 21 20 20 24 24 26 26 26 26 23 22 21 22 19 20
4 4 4 4 4 5 7 7 8 8 9 11 12 13 15 16 17 17 16 13 14 17 18 19 21 21 23 21 22 23 22 21 21 21 19 20 22 24 26 25 24 23 22 19 22 20 22
2 3 3 3 3 3 4 6 7 7 9 10 12 14 16 16 16 16 15 12 14 16 19 21 21 21 21 21 23 23 22 21 22 20 22 18 20 23 26 26 26 24 22 22 19 19 20
2 2 2 2 2 2 3 4 6 6 8 9 11 13 15 14 15 14 11 12 14 17 20 20 20 21 21 20 21 21 21 22 23 22 21 21 22 22 26 27 25 24 22 23 18 21 21
1 2 2 2 2 2 2 2 4 5 7 9 11 12 13 14 13 13 10 11 16 19 19 20 19 20 20 20 21 20 21 23 24 25 20 20 20 22 23 24 25 23 22 19 19 18 20
2 1 2 1 2 2 2 2 2 4 6 8 8 7 12 12 11 8 9 12 17 19 20 20 20 19 19 20 19 19 20 22 24 23 22 20 21 22 22 24 24 25 23 21 24 20 17
2 2 2 1 2 2 1 1 1 3 3 4 4 5 11 11 9 9 10 13 16 18 18 19 19 18 19 19 19 18 20 23 24 22 22 20 18 22 22 22 24 24 21 19 18 17 17
2 2 2 1 2 2 2 2 1 1 3 4 3 2 9 11 10 10 9 11 14 17 17 18 18 18 19 18 17 19 20 23 24 24 24 23 18 22 23 24 23 24 23 20 21 19 19
2 2 2 1 1 2 2 2 2 1 2 4 3 3 5 5 7 6 8 10 13 14 16 17 17 16 16 15 17 17 19 21 22 22 20 20 21 21 25 22 23 24 24 21 22 22 23
2 2 1 2 1 2 2 1 2 1 1 2 3 3 3 4 6 7 8 10 12 13 13 15 15 17 16 16 17 19 19 20 22 20 20 17 21 19 24 24 23 25 24 22 22 23 22
2 2 2 2 2 2 2 2 2 2 1 2 1 2 2 5 4 7 8 9 10 11 13 14 15 14 15 16 16 18 20 20 17 19 17 17 19 17 22 21 21 22 25 23 24 22 23
1 1 1 2 2 2 1 2 2 2 1 1 0 0 2 5 6 7 8 8 9 11 10 12 13 12 16 17 19 20 18 18 16 16 15 17 18 16 22 21 20 24 23 25 25 23 22
2 2 2 2 1 1 2 1 1 1 1 1 1 1 2 4 6 7 7 8 8 9 9 12 13 15 15 15 15 18 19 21 21 19 18 14 15 17 18 17 22 24 21 23 24 23 20
2 1 1 1 1 1 1 1 1 2 1 1 1 1 0 2 5 6 5 6 6 8 9 11 14 14 14 12 14 16 17 17 18 21 18 16 15 16 15 20 21 21 18 19 18 21 18
1 1 1 1 1 1 1 1 1 1 1 1 1 2 1 2 3 4 5 6 7 8 7 8 10 10 12 10 13 14 16 19 17 18 17 15 16 17 16 18 18 18 16 18 23 20 17
1 1 1 1 1 1 1 1 1 2 1 1 1 1 1 1 3 3 4 5 5 6 7 9 9 9 8 11 11 12 13 15 17 17 16 17 16 15 15 17 21 16 18 20 18 18 19
1 1 1 1 1 1 1 2 1 1 1 1 1 1 1 1 2 4 4 5 5 6 6 7 8 8 8 8 9 9 12 13 14 16 17 17 16 15 15 15 14 15 14 18 19 19 19

GFSGBSN_850_temp_006.txt.gz
Temp
13 13 13 13 13 13 13 14 14 15 15 15 16 16 17 17 18 18 18 19 20 20 21 21 22 22 22 21 24 25 25 25 25 24 24 26 27 29 32 33 33 32 34 33 33 32 32
12 12 13 13 13 13 13 13 13 14 15 15 15 16 16 17 18 18 18 19 20 20 21 21 22 21 21 23 25 25 25 24 23 23 25 26 28 29 31 32 33 33 33 33 33 32 31
11 11 11 11 12 12 12 12 13 13 14 14 15 16 16 17 18 18 18 19 20 20 21 21 22 21 20 23 23 24 24 23 23 24 26 26 28 29 30 32 32 32 32 32 32 32 31
11 11 11 12 12 11 11 12 12 12 13 14 14 15 16 16 17 18 18 19 20 21 21 21 21 20 21 23 24 24 23 23 23 23 25 26 27 28 30 32 32 32 33 33 32 31 30
11 10 10 11 11 11 11 11 11 11 12 13 14 15 16 16 16 18 18 19 20 21 21 21 19 19 24 23 23 24 24 25 24 24 24 25 26 28 30 31 32 33 32 33 31 31 30
10 10 10 10 10 10 11 11 11 12 12 12 13 13 15 16 16 18 19 20 20 20 20 18 17 17 23 26 24 24 24 25 25 24 25 26 27 30 31 32 31 32 32 34 33 31 31
9 9 9 9 9 9 10 10 10 11 12 13 12 13 15 15 16 17 19 19 18 18 17 22 25 25 26 25 24 25 24 25 26 26 28 28 29 29 31 33 34 34 33 33 34 33 32
9 9 9 9 9 9 9 9 10 10 11 12 12 12 14 15 16 17 17 16 16 17 19 22 22 22 23 24 24 25 25 26 27 28 29 29 28 31 32 33 33 33 33 33 34 33 32
8 8 8 8 8 8 8 9 10 10 10 11 12 12 13 15 16 16 16 14 16 15 20 24 23 23 23 22 23 25 25 26 28 28 29 29 30 32 31 32 32 33 33 33 33 32 32
7 7 7 7 7 7 8 8 9 9 10 10 11 12 12 15 15 15 15 16 16 15 22 27 25 24 22 24 25 25 26 26 28 29 29 29 32 31 30 30 32 32 34 34 33 32 31
6 6 6 6 6 7 7 8 8 8 9 10 11 12 11 11 13 14 14 15 15 15 23 27 26 24 24 25 27 26 26 27 28 29 29 29 30 29 29 30 32 32 34 33 33 33 32
4 3 3 4 5 5 6 7 7 8 9 9 10 11 11 12 13 15 15 15 15 21 23 27 27 26 26 26 27 25 25 27 28 29 29 30 30 31 31 32 32 33 33 33 33 33 31
3 3 3 3 3 4 5 5 6 7 8 9 10 11 11 11 12 14 15 15 21 23 25 26 27 28 28 28 28 27 26 27 27 26 27 28 29 30 31 31 32 32 32 30 29 30 30
4 4 3 2 2 3 3 3 4 5 7 9 10 11 12 13 14 14 13 19 20 25 25 27 27 28 27 28 28 28 27 27 28 28 29 27 27 29 30 31 31 31 32 31 28 30 31
4 4 4 3 3 3 3 2 3 3 4 7 9 11 11 13 13 13 14 19 22 24 26 26 27 26 27 28 27 28 28 28 29 29 28 29 28 31 31 31 32 31 31 33 32 33 32
4 4 4 3 3 3 3 2 3 3 3 4 7 7 10 9 11 10 16 19 23 24 25 26 26 27 27 28 27 28 28 29 29 30 30 29 27 30 31 31 32 32 33 31 33 30 29
4 4 3 4 4 3 3 3 3 3 3 5 5 8 11 11 9 12 17 20 22 23 23 24 25 26 26 27 27 28 28 29 29 30 29 30 28 29 30 29 30 31 31 31 33 32 30
3 3 3 3 3 3 3 3 3 2 3 3 5 11 9 8 13 17 18 20 21 22 22 23 24 25 25 26 26 26 27 28 29 30 28 29 29 27 29 31 32 32 31 32 31 29 32
3 3 3 3 3 3 3 3 2 2 2 2 5 8 9 9 14 17 18 19 20 20 22 23 23 24 25 25 24 25 27 28 27 28 29 30 28 27 28 30 31 30 31 32 32 32 31
3 3 3 2 3 3 3 3 2 2 2 2 5 11 12 10 12 14 15 15 17 19 20 22 23 24 24 24 25 24 25 27 27 28 24 27 29 27 28 28 30 29 30 31 32 32 31
2 2 2 2 2 2 2 3 2 2 2 2 5 10 8 12 14 12 12 14 15 17 19 20 21 22 23 23 24 24 25 26 26 26 26 27 26 28 29 30 30 30 30 30 30 31 31
2 2 2 2 2 2 2 2 2 1 1 1 4 7 6 7 8 10 11 13 14 16 17 18 19 21 22 22 23 23 24 25 25 27 27 27 26 27 28 29 30 29 30 30 31 31 31
2 2 2 2 2 2 2 1 2 1 1 2 3 3 3 7 8 9 12 13 13 13 14 16 17 17 18 21 21 22 22 23 24 25 26 26 26 26 26 29 29 28 30 30 30 31 31
2 2 2 2 2 2 2 2 2 1 1 1 2 2 2 7 10 9 10 10 11 11 11 13 14 14 16 15 16 18 20 22 23 23 25 24 24 26 26 26 25 29 31 31 31 31 32
2 1 2 2 2 2 2 2 2 1 1 1 1 1 1 4 7 8 8 9 10 10 10 10 11 13 14 14 17 19 21 22 23 24 24 25 24 25 25 26 27 28 29 30 30 30 32
1 1 1 1 2 2 2 2 2 2 1 1 1 1 0 2 7 7 7 6 9 10 11 12 10 11 12 15 18 18 21 22 22 24 25 26 25 25 25 25 24 26 24 23 25 27 32
1 1 1 1 2 2 2 2 2 1 1 1 1 1 1 1 4 5 7 8 8 9 11 11 8 11 13 16 18 20 22 24 24 23 23 24 24 25 25 24 26 23 22 24 24 28 32
1 2 1 1 2 2 2 2 1 1 1 1 1 1 1 1 1 3 5 6 5 7 10 9 9 10 12 13 18 21 23 24 24 25 23 23 24 25 24 23 24 20 23 23 23 23 25
1 1 2 2 2 2 2 1 1 1 1 1 1 1 1 1 2 3 4 4 5 6 6 7 8 8 11 12 15 17 19 22 23 24 25 24 25 25 24 25 20 19 19 19 22 23 24

GFSGBSN_850_temp_009.txt.gz
Temp
12 13 13 13 13 13 13 13 13 14 14 15 15 15 16 17 17 18 18 19 19 20 20 20 21 21 21 22 25 26 26 25 25 24 25 28 29 31 32 34 34 35 35 35 35 34 34
12 12 12 12 13 12 12 13 13 13 14 14 15 16 16 17 17 18 18 19 20 20 20 21 21 21 21 24 27 25 25 24 24 25 26 28 30 31 32 34 35 35 35 35 35 35 34
11 11 11 11 12 12 12 13 13 13 13 14 15 15 16 16 17 18 18 19 20 20 21 21 21 21 19 24 26 26 25 25 26 26 27 28 29 31 32 34 34 34 35 35 35 35 35
11 11 10 10 10 10 11 11 11 12 13 13 14 15 16 16 17 17 18 19 20 21 21 21 21 20 22 26 26 26 25 26 26 27 27 29 29 30 32 33 34 35 35 34 36 36 35
10 10 10 10 10 10 10 10 10 11 11 12 13 14 15 16 16 18 18 19 20 21 21 21 20 19 25 25 25 25 26 26 27 27 27 28 29 30 31 32 33 34 33 34 34 35 35
10 10 10 10 10 10 10 10 10 11 11 11 12 13 14 15 16 17 19 19 20 21 20 19 17 20 23 27 27 27 27 27 28 27 27 27 29 31 32 33 31 33 34 35 34 35 35
9 9 9 9 9 9 9 10 10 10 10 11 11 13 14 14 16 17 19 18 19 18 17 24 26 27 28 28 27 27 27 27 28 28 29 29 30 30 32 33 34 35 35 35 36 36 35
9 9 9 9 9 9 9 9 9 10 10 11 11 12 13 14 15 17 17 19 20 18 21 23 24 25 27 28 28 27 27 28 29 29 30 31 30 33 33 34 34 35 35 35 36 35 35
9 9 9 8 8 8 8 8 8 9 9 10 10 10 12 14 16 16 16 17 17 18 22 25 26 26 27 27 27 28 28 28 30 30 31 31 32 33 33 33 34 34 35 35 36 34 35
7 5 4 4 4 6 7 7 7 8 9 9 10 10 11 14 14 15 17 17 17 17 23 28 28 28 27 27 29 28 28 29 30 30 31 32 34 33 33 33 34 33 35 36 36 33 32
4 4 4 4 3 4 5 6 7 7 8 9 10 10 10 10 13 14 17 16 16 18 24 31 29 28 28 29 30 29 28 29 30 31 31 31 32 33 32 33 34 34 36 35 36 35 32
5 5 4 4 4 4 4 4 5 6 7 8 9 10 10 11 10 13 14 15 17 22 24 30 30 28 29 29 30 29 29 29 29 31 32 32 33 33 34 34 34 35 35 35 35 35 33
5 5 4 4 4 4 4 4 4 6 7 8 9 10 10 10 12 15 15 17 22 23 29 30 30 30 30 30 31 30 29 30 29 28 29 31 32 33 34 32 34 34 33 32 32 33 32
4 5 4 4 4 4 4 4 5 6 7 7 9 10 12 10 12 13 13 19 20 26 27 32 31 31 30 32 31 31 30 30 30 31 31 30 29 32 33 33 32 33 33 32 30 32 33
4 4 4 4 4 4 4 4 4 4 5 7 9 9 11 13 12 12 15 19 22 25 29 30 30 30 30 32 32 31 30 30 31 31 30 31 30 33 33 33 33 33 33 35 34 34 34
4 4 4 4 4 4 4 4 4 4 4 4 5 8 12 13 12 12 16 18 23 26 29 29 28 30 30 30 30 30 31 32 31 32 32 31 30 33 33 33 33 33 35 33 35 31 31
4 4 4 4 4 4 3 4 4 4 4 4 6 11 14 12 11 13 17 19 21 22 25 27 27 29 30 30 31 31 30 32 33 32 32 32 31 31 33 32 31 32 33 34 34 34 32
3 3 3 4 4 3 3 4 3 3 3 5 7 13 13 12 14 16 17 19 20 23 24 25 26 27 28 30 30 30 30 31 33 32 31 32 31 30 31 33 34 33 32 33 33 31 33
3 3 3 3 3 3 3 3 3 3 2 3 7 10 12 13 14 17 18 19 21 21 23 24 25 26 27 27 27 29 30 32 31 31 31 32 30 29 30 32 33 32 32 33 34 34 33
2 2 3 3 3 3 3 3 3 2 2 2 5 12 14 13 14 16 17 18 19 21 22 23 24 25 25 26 27 27 28 30 30 30 26 30 31 29 30 30 32 31 32 32 33 33 33
2 2 2 2 3 2 2 3 2 2 2 1 5 10 12 13 15 13 12 11 15 14 18 20 21 22 24 24 25 26 28 29 30 29 28 30 28 30 31 32 32 32 32 32 32 33 32
3 2 3 3 2 2 2 2 2 2 2 1 3 7 7 9 11 11 11 12 14 15 15 14 17 21 23 23 25 25 27 27 28 29 28 30 28 29 29 31 31 31 32 33 32 32 33
2 2 2 2 2 2 2 2 2 2 1 1 2 4 5 8 11 12 12 11 13 15 13 12 12 13 18 21 20 21 24 28 28 28 28 28 29 28 27 30 30 29 31 32 32 33 32
2 2 2 2 2 2 2 2 2 2 1 1 2 2 3 8 10 10 10 10 10 11 11 13 12 11 13 13 17 19 22 25 26 27 29 27 27 28 28 29 26 30 32 33 32 33 33
2 2 1 2 2 2 2 2 2 2 1 2 2 1 1 7 8 10 9 9 8 10 12 12 12 11 11 14 18 19 21 21 22 24 26 28 27 26 27 27 25 26 29 30 29 31 33
2 2 2 2 2 2 2 2 2 2 2 1 2 1 0 2 7 6 7 7 7 9 12 14 12 11 10 14 16 17 19 21 21 23 26 26 26 26 27 26 27 30 27 29 30 28 32
2 2 2 2 2 2 2 2 2 2 2 2 2 1 0 1 2 4 7 5 7 6 9 9 11 11 11 13 15 17 19 22 22 22 23 25 25 25 26 26 28 28 28 28 27 28 27
2 2 2 1 2 2 2 2 2 2 2 1 2 1 1 1 1 3 5 6 7 8 9 6 13 10 12 12 15 17 19 22 23 25 25 25 25 26 26 26 26 26 27 27 25 26 27
2 2 2 2 2 2 2 2 2 2 2 1 1 1 1 0 2 4 5 6 6 8 9 10 11 9 12 11 13 13 14 17 22 22 27 26 27 27 27 28 24 23 23 23 24 26 26

GFSGBSN_850_temp_015.txt.gz
Temp
11 11 11 12 12 13 13 13 13 14 15 15 15 15 16 16 17 18 18 18 19 19 20 20 20 20 20 20 23 26 25 25 26 26 26 25 26 27 27 29 31 30 31 32 32 32 32
11 11 11 11 11 11 11 11 12 13 13 14 15 15 15 16 17 17 18 19 19 19 20 20 20 20 19 18 27 26 26 25 26 26 26 25 27 28 30 30 29 32 33 33 34 30 33
11 10 10 10 10 10 11 11 11 11 12 13 13 14 15 15 15 17 18 19 19 20 20 20 20 19 19 23 27 25 26 26 26 26 25 26 27 28 30 29 31 32 30 32 33 35 31
10 10 10 10 10 10 10 11 11 11 11 12 13 14 15 15 16 17 18 19 19 20 20 20 20 19 18 25 26 27 26 26 27 27 26 27 28 28 29 30 31 30 29 28 32 33 34
10 9 9 9 9 9 10 10 10 10 11 11 12 13 14 15 16 17 18 20 20 21 20 20 19 18 18 25 25 28 26 27 27 27 27 28 28 29 29 27 25 27 26 28 30 34 33
9 8 7 7 7 8 8 8 9 9 9 10 11 12 13 14 15 16 18 20 21 20 19 18 17 16 23 26 26 27 27 27 28 28 28 28 29 25 26 25 24 25 27 28 30 32 32
6 6 6 6 6 6 6 6 6 7 8 9 9 11 12 14 15 16 18 20 20 20 17 19 20 22 25 26 28 28 28 27 28 28 25 28 24 25 25 27 28 29 29 29 31 33 27
6 6 6 6 6 6 6 6 6 7 8 9 9 10 11 14 15 16 16 17 18 19 20 20 21 21 23 26 25 28 29 28 27 25 26 25 25 26 28 29 29 29 29 29 31 33 28
5 5 6 6 6 6 6 6 6 6 7 9 9 10 11 13 15 16 17 18 19 19 19 20 22 22 23 24 24 27 29 29 27 26 27 25 27 29 29 29 29 28 28 29 29 33 29
5 5 5 5 5 5 5 5 6 6 6 7 9 9 10 12 15 16 17 16 18 18 16 21 25 25 24 24 26 26 29 29 28 26 27 26 29 29 28 28 29 27 30 31 31 31 28
5 5 5 5 5 5 5 5 6 6 7 8 9 9 10 10 11 15 15 17 18 18 17 28 28 29 27 25 28 27 28 29 27 27 27 27 28 28 28 29 30 29 31 31 31 30 28
5 5 5 5 5 5 5 5 6 6 6 7 9 10 10 11 11 15 15 17 16 17 18 26 30 29 26 26 27 30 28 28 29 28 28 28 31 29 29 31 31 31 30 30 30 30 28
5 5 5 5 5 5 5 5 5 5 5 6 9 10 11 10 13 13 14 16 16 17 25 28 28 29 28 27 27 28 28 27 26 25 25 27 28 29 31 29 29 30 26 27 26 27 26
4 4 5 5 4 4 4 4 4 5 5 5 6 9 12 13 13 13 13 14 14 21 22 26 27 28 28 29 28 29 28 26 27 26 24 24 25 28 30 29 28 29 28 27 23 25 27
4 4 4 4 4 4 4 4 4 4 5 5 5 9 11 15 13 12 11 12 17 20 22 23 22 25 27 29 29 28 27 27 28 27 25 25 25 30 31 31 30 28 27 29 26 26 25
4 4 4 4 4 4 4 4 4 4 4 5 5 7 13 14 13 13 12 12 16 20 19 18 17 22 20 22 24 28 28 29 29 29 28 26 25 28 31 31 31 30 29 27 28 25 26
4 4 4 4 4 4 4 3 3 3 4 5 5 7 14 13 14 13 12 13 15 17 18 18 18 19 20 21 22 22 26 30 31 30 29 28 27 27 29 29 29 29 28 27 27 27 26
4 4 4 3 3 3 3 3 3 3 3 4 4 7 13 11 10 15 14 15 16 16 17 18 18 18 18 19 20 22 23 25 31 31 29 29 26 25 27 29 31 30 27 27 26 24 24
3 3 3 3 3 3 3 3 3 2 2 2 3 5 11 10 10 12 14 16 16 17 17 17 18 19 20 18 18 20 22 25 27 28 29 28 28 24 25 27 29 29 30 27 28 24 24
3 3 3 3 3 3 3 3 3 2 2 2 2 6 9 9 12 12 13 11 10 11 13 14 15 15 15 15 17 18 19 22 26 27 27 26 27 27 26 26 27 27 29 29 28 27 27
3 3 3 3 2 3 3 3 3 3 2 2 3 5 7 6 7 7 9 8 9 10 12 11 13 11 10 10 12 14 15 14 17 23 25 24 27 27 28 29 29 29 29 30 28 28 26
3 3 3 3 2 2 3 2 3 2 2 1 2 3 4 4 6 7 9 10 10 11 11 10 10 9 9 10 9 9 10 11 12 15 15 18 22 24 25 28 29 29 30 30 30 30 29
2 2 2 2 2 2 3 2 3 2 2 1 2 2 2 3 5 6 7 9 8 8 9 8 9 10 9 11 8 8 9 11 12 13 13 16 19 22 23 26 27 26 29 29 29 30 29
3 3 2 2 2 3 3 2 2 3 2 2 2 2 2 3 4 6 7 8 9 8 9 9 10 10 10 10 10 11 13 14 15 16 17 18 18 21 22 24 23 27 28 30 29 29 29
3 3 3 3 3 2 2 2 2 2 2 2 2 2 1 2 4 5 7 8 8 8 9 9 10 9 10 10 9 10 13 15 17 19 19 20 19 20 20 22 24 26 28 29 28 27 29
3 3 3 3 2 2 2 2 2 2 2 2 2 2 2 0 3 5 5 6 6 6 7 8 7 7 8 9 7 8 11 12 15 18 22 22 21 21 20 21 22 25 28 29 29 25 27
3 3 3 3 3 2 2 2 2 2 2 2 2 2 2 0 1 3 5 5 6 6 5 6 5 6 7 8 7 7 8 13 13 14 19 20 21 21 21 22 24 26 28 27 24 23 26
2 3 2 2 2 2 2 2 2 2 2 2 2 2 2 1 2 2 3 4 5 6 6 6 4 4 6 7 8 8 8 12 12 14 15 16 19 20 21 21 22 23 25 25 22 27 27
2 2 2 2 2 2 2 2 2 2 2 2 2 2 2 2 2 3 4 4 4 5 6 6 5 4 4 7 10 9 10 9 11 12 16 15 14 16 20 20 19 18 18 20 23 25 26

GFSGBSN_850_temp_021.txt.gz
Temp
10 9 9 9 10 10 10 10 11 11 11 12 12 12 13 13 14 15 16 16 17 17 18 18 19 19 19 19 22 25 25 25 25 23 23 23 22 22 22 22 24 23 24 26 27 27 27
7 7 7 7 7 7 8 8 9 10 11 11 12 12 13 13 14 15 16 17 18 18 18 18 18 18 18 16 25 25 25 24 24 24 24 24 24 24 24 24 24 26 26 27 29 28 29
6 6 6 7 7 7 7 7 7 8 8 10 11 12 12 13 14 15 17 18 19 19 19 19 19 18 17 22 25 24 25 25 24 25 24 25 25 24 25 23 26 27 26 26 26 28 27
5 5 6 6 6 7 7 7 7 7 8 9 10 11 12 13 14 14 17 19 18 20 20 20 19 17 17 23 24 24 25 24 24 24 24 25 25 24 24 25 25 26 25 25 27 27 28
5 5 6 6 6 7 7 7 7 8 8 10 11 11 12 13 13 14 17 18 19 19 19 19 18 17 18 21 23 25 25 26 26 25 24 24 23 23 24 22 21 21 23 24 25 27 26
6 6 6 6 6 7 7 7 7 7 8 9 10 11 12 12 13 15 17 18 17 17 16 16 14 14 21 23 23 24 24 25 25 25 23 22 23 20 18 19 20 22 23 24 25 27 26
6 6 6 6 7 7 7 7 7 8 8 9 10 11 11 13 13 14 16 17 16 16 14 16 17 18 21 23 23 24 25 25 24 24 20 22 20 18 20 20 22 24 24 23 25 28 26
6 6 6 6 7 7 7 7 7 8 8 9 10 11 11 13 13 13 14 13 11 9 9 17 20 18 22 21 20 24 24 23 22 20 21 21 20 21 22 21 22 23 23 23 24 26 25
6 6 6 6 7 7 7 7 7 7 8 9 10 10 11 13 14 14 13 13 13 12 10 16 18 19 18 20 18 23 23 25 22 20 20 21 21 22 23 23 22 22 22 24 24 26 26
6 7 6 6 6 6 7 7 7 7 7 7 9 10 10 12 13 14 13 13 14 14 11 16 18 19 19 20 17 23 24 25 23 22 21 20 23 23 23 23 22 20 23 25 25 24 23
6 6 6 5 5 5 5 5 6 6 6 7 8 10 10 10 10 12 12 14 15 14 15 22 21 21 20 21 23 20 24 24 22 22 21 21 22 23 22 24 22 23 25 24 25 24 24
5 5 5 5 5 5 5 5 5 5 5 6 7 9 9 10 10 12 12 14 15 14 14 20 22 21 20 21 22 22 22 24 25 23 23 23 24 24 23 24 24 25 25 24 23 20 20
5 5 5 5 5 5 4 4 4 5 5 5 6 8 9 9 9 11 11 12 12 12 18 20 17 17 19 20 22 23 22 21 21 21 21 22 24 24 24 23 23 23 20 19 20 20 22
5 5 5 5 5 5 4 4 4 4 4 5 6 8 10 8 8 10 11 9 11 16 15 16 16 16 19 17 21 19 22 22 22 22 20 21 21 23 23 23 23 21 21 16 19 19 21
5 5 5 5 4 4 4 4 4 4 4 4 5 9 9 7 7 8 8 7 11 13 15 14 15 15 15 15 16 16 16 23 23 21 21 19 21 24 25 25 25 22 22 22 20 19 19
5 4 4 4 4 4 4 4 4 4 4 4 4 8 7 7 7 7 5 6 9 13 13 14 14 13 12 13 15 14 15 19 19 21 21 20 21 21 25 25 24 24 22 23 16 20 21
4 4 4 3 3 3 3 3 3 3 3 4 4 4 8 7 8 7 4 5 10 12 14 13 12 12 13 13 15 14 15 16 16 16 18 21 20 23 23 22 23 22 23 21 19 19 22
4 4 4 4 4 3 3 3 3 2 3 3 3 0 7 7 5 3 3 4 10 11 11 11 12 13 12 12 12 14 15 16 14 14 13 14 15 21 21 22 25 24 24 20 21 20 17
4 4 4 3 3 3 3 3 2 2 2 2 2 2 6 6 2 2 3 7 9 9 9 10 10 10 10 11 11 11 11 14 12 12 12 12 12 17 19 22 23 22 21 24 21 19 23
4 3 3 2 2 2 3 3 2 2 2 2 2 1 4 5 3 3 3 5 6 7 9 8 9 9 8 8 9 9 10 12 11 12 13 11 10 14 17 20 21 21 23 24 23 22 24
3 3 3 3 3 3 3 3 3 2 2 2 2 1 1 0 2 1 3 4 5 5 7 7 8 8 7 7 7 8 10 9 10 11 10 9 9 12 14 16 18 21 22 25 22 24 24
3 3 3 3 3 3 3 3 3 2 2 1 2 1 2 1 2 3 2 4 5 6 6 6 5 6 7 6 7 7 8 8 8 9 8 7 10 10 13 18 20 21 23 24 25 25 24
3 3 3 3 3 3 3 3 3 2 2 1 1 1 1 2 2 2 2 4 4 4 6 6 6 6 6 7 6 7 8 8 8 8 7 7 8 9 10 14 16 19 23 24 25 25 25
3 3 3 3 3 3 3 3 3 2 2 1 2 1 1 2 3 3 3 3 4 4 4 5 6 6 7 7 8 8 7 7 8 7 8 7 8 9 9 12 17 22 25 26 25 24 23
3 3 3 3 3 3 3 2 3 3 2 1 2 1 1 1 3 4 4 4 3 3 3 4 5 6 6 6 5 5 5 7 7 9 7 8 8 9 11 12 15 21 24 25 23 24 23
3 3 3 3 2 3 2 2 2 2 2 2 2 2 1 1 2 3 2 2 2 2 3 5 6 6 5 3 4 4 5 8 9 11 10 8 10 13 10 13 15 20 17 17 23 24 23
3 3 3 3 3 3 2 2 2 2 2 2 2 2 1 1 1 1 2 1 3 2 1 2 3 4 5 2 3 3 5 7 7 10 9 9 9 11 12 13 15 15 14 16 21 25 21
4 3 3 3 3 3 2 2 2 2 2 1 2 1 1 1 2 1 1 2 2 2 2 3 3 3 2 3 5 5 5 6 7 8 10 11 10 11 12 13 13 14 14 15 15 15 21
4 4 3 3 3 3 3 3 2 3 2 2 2 2 1 1 1 1 2 2 3 2 2 2 3 3 4 3 3 3 5 5 6 7 10 10 12 11 14 14 13 13 12 13 14 14 14

GFSGBSN_850_temp_024.txt.gz
Temp
6 6 6 7 7 7 7 8 8 9 9 10 11 12 12 12 12 13 13 14 16 17 17 18 18 18 18 18 22 24 24 25 23 21 21 21 18 20 19 20 21 21 22 24 26 26 26
5 5 5 6 6 7 7 7 8 8 8 9 11 11 12 12 13 13 13 14 15 16 17 18 18 17 17 14 23 23 24 24 24 21 21 22 20 21 22 23 21 24 24 25 26 26 27
5 5 5 6 6 7 7 7 7 8 8 9 11 11 11 12 13 13 14 15 16 18 18 18 18 18 16 21 23 23 23 24 23 23 22 22 24 22 23 22 25 25 23 24 24 26 26
6 6 6 6 6 7 7 7 8 8 9 10 11 11 12 12 12 13 15 16 17 18 19 19 19 17 17 22 22 22 22 23 23 23 23 24 24 23 23 24 24 24 24 23 26 24 27
6 6 6 7 7 7 7 7 8 9 10 10 11 11 12 13 13 14 14 16 18 18 18 18 17 16 18 21 22 24 22 23 22 22 22 22 22 22 22 21 19 20 21 22 24 25 26
6 7 7 7 7 8 8 8 8 9 9 10 10 11 12 13 13 14 14 16 15 15 15 15 13 14 20 22 22 23 23 23 22 23 20 21 22 18 16 17 19 20 21 22 24 27 24
7 7 8 7 7 8 8 8 8 9 9 10 10 11 12 13 13 14 15 15 14 13 13 15 16 17 20 22 22 23 23 23 22 21 18 20 18 18 17 19 21 21 22 24 24 26 25
7 7 7 7 7 7 7 7 7 7 8 9 10 10 10 13 13 13 13 12 9 7 7 16 18 16 20 19 20 22 22 21 21 19 18 18 19 19 19 19 21 22 22 21 24 25 26
7 7 7 7 6 6 6 7 6 7 8 8 10 10 9 12 13 13 12 11 10 10 7 13 16 16 17 19 17 21 21 22 19 19 19 20 20 20 21 20 20 19 20 21 24 25 24
7 6 6 6 6 6 6 6 6 6 7 8 9 9 9 10 12 12 12 12 11 12 9 14 16 17 17 19 16 21 22 23 21 21 18 19 21 21 20 21 21 18 20 23 23 22 22
6 6 6 6 6 6 6 6 6 6 6 7 9 9 8 8 8 11 11 12 12 12 14 20 18 19 19 19 21 18 23 23 20 20 20 20 20 21 20 22 21 22 22 22 23 22 22
6 6 5 5 5 5 5 5 6 5 6 7 9 9 7 8 9 9 10 13 12 12 13 19 19 19 18 19 20 19 21 22 24 21 22 21 22 22 22 22 22 22 23 20 18 18 19
5 5 5 5 5 5 5 5 5 5 5 6 8 8 7 7 6 8 9 12 11 11 16 17 15 15 16 18 20 19 19 20 21 18 19 21 22 22 22 22 22 22 19 17 19 18 21
5 5 5 5 5 5 4 4 5 5 5 6 8 8 7 7 7 8 9 9 10 14 14 15 15 14 16 14 16 16 18 20 20 20 18 19 19 22 21 22 21 19 18 15 18 17 21
5 5 5 5 5 4 4 4 4 4 5 5 7 8 7 7 7 8 7 7 9 11 13 12 13 14 14 14 15 15 15 19 21 20 20 17 19 22 23 22 23 19 20 19 17 18 17
5 5 5 5 5 4 4 4 4 4 4 5 5 6 7 7 8 8 4 5 7 10 11 12 11 12 11 12 13 13 14 12 14 15 16 20 19 21 23 24 22 21 19 20 14 19 19
5 5 4 4 4 4 4 4 3 3 4 4 4 4 6 7 7 6 3 3 6 9 10 10 10 10 11 11 12 13 14 12 13 13 13 12 18 21 20 21 23 19 20 18 19 15 18
5 4 4 3 3 3 3 3 3 3 3 4 2 0 6 6 3 1 1 4 6 7 8 9 10 9 10 11 12 12 12 11 12 13 11 12 11 18 20 22 23 24 22 18 20 18 15
4 4 4 3 3 3 3 3 3 3 3 2 2 1 5 5 0 -0 2 5 7 6 6 7 8 9 9 9 10 10 11 11 11 11 11 11 11 15 19 21 21 21 22 20 22 17 20
4 4 4 4 4 4 3 3 3 3 2 2 2 0 3 3 2 1 2 2 5 7 6 5 7 8 7 7 7 8 9 11 11 12 12 11 9 11 14 15 14 16 19 20 21 22 23
4 3 3 3 3 3 3 3 3 2 2 2 2 0 1 -0 1 2 3 2 4 4 6 5 5 6 5 6 6 7 8 8 10 10 9 8 10 11 12 13 15 16 17 18 19 22 22
4 4 4 3 3 3 3 3 3 2 2 2 2 2 1 1 1 3 4 2 3 5 4 5 4 4 6 5 6 5 5 7 7 8 8 6 10 9 11 14 15 15 17 19 20 20 20
4 4 3 3 3 3 3 3 3 2 2 1 2 1 1 1 1 1 2 3 3 3 4 5 5 4 5 6 6 6 6 7 6 7 6 6 8 9 10 12 13 16 19 20 20 21 22
4 4 4 3 3 3 3 3 3 2 2 1 1 1 1 2 2 2 3 4 3 3 3 3 4 4 5 6 6 7 4 4 5 5 7 6 6 7 8 11 13 18 17 20 21 23 21
4 4 4 4 3 3 3 3 3 2 2 2 1 1 1 1 3 3 4 5 3 2 2 2 3 4 5 5 3 4 4 5 4 6 6 7 6 8 9 10 14 16 18 15 14 17 22
4 4 4 4 3 3 3 3 2 2 2 2 2 1 1 1 2 3 2 3 1 2 2 3 4 5 5 1 3 4 4 6 7 8 6 6 7 7 8 10 12 17 14 16 14 15 20
5 4 4 4 4 3 3 2 2 2 2 2 2 1 1 1 2 2 2 2 2 3 2 3 3 3 4 3 3 3 3 6 6 7 5 6 6 6 8 10 12 15 14 15 18 18 14
5 5 4 4 4 4 4 3 3 2 2 2 2 1 1 1 1 1 1 1 2 2 2 3 3 2 3 3 4 5 3 4 5 7 7 5 6 6 8 9 11 13 16 17 15 13 14
6 5 5 5 5 5 4 3 3 3 3 2 1 2 1 1 1 1 2 2 2 2 2 1 3 3 3 3 2 2 3 4 4 5 7 7 8 8 9 11 11 14 13 13 13 12 13